Weather History for KGMU - July, 2013

Change the Weather History Date:

Tuesday, July 9, 2013

  Actual Average (KGSP) Record (KGSP)
Temperature  
Mean Temperature 80 °F 80 °F  
Max Temperature 89 °F 90 °F 100 °F (1993)
Min Temperature 71 °F 69 °F 55 °F (1896)
Degree Days  
Heating Degree Days 0 0  
Month to date heating degree days 0  
Since 1 June heating degree days 2  
Since 1 July heating degree days 0  
Cooling Degree Days 14 15  
Month to date cooling degree days 133  
Year to date cooling degree days 685  
Since 1 June cooling degree days 484  
Growing Degree Days 30 (Base 50)    
Moisture  
Dew Point 70 °F    
Average Humidity 80    
Maximum Humidity 94    
Minimum Humidity 55    
Precipitation  
Precipitation 0.03 in 0.15 in 3.73 in (1928)
Month to date precipitation 1.28  
Year to date precipitation 24.51  
Snow  
Snow 0.00 in 0.00 in 0.00 in ()
Month to date snowfall 0.0  
Since 1 June snowfall 0.0  
Since 1 July snowfall 0.0  
Snow Depth -    
Sea Level Pressure  
Sea Level Pressure 30.15 in    
Wind  
Wind Speed 6 mph (SW)    
Max Wind Speed 12 mph    
Max Gust Speed -    
Visibility 10 miles    
Events Rain , Thunderstorm    
T = Trace of Precipitation, MM = Missing Value Source: NWS Daily Summary

Daily Weather History Graph

Daily Weather History Graph

Search for Another Location

Airport or City:

Trip Planner

Search our weather history database for the weather conditions in past years. The results will help you decide how hot, cold, wet, or windy it might be!

Date:

Astronomy

Jul. 09, 2013 Rise Set
Actual Time 6:23 AM EDT 8:45 PM EDT
Civil Twilight 5:54 AM EDT 9:14 PM EDT
Nautical Twilight 5:18 AM EDT 9:50 PM EDT
Astronomical Twilight 4:39 AM EDT 10:29 PM EDT
Moon 7:41 AM EDT (7/9) 9:28 PM EDT (7/9)
Length of Visible Light 15h 20m
Length of Day
14h 21m
New Moon, 2% of the Moon is Illuminated
Jul 9
New Moon
Jul 15
First Quarter
Jul 22
Full
Jul 29
Last Quarter
Aug 6
New

Hourly Weather History & Observations

Time (EDT) Temp. Heat Index Dew Point Humidity Pressure Visibility Wind Dir Wind Speed Gust Speed Precip Events Conditions
12:15 AM 73.4 °F - 71.6 °F 94% 30.22 in 10.0 mi South 5.8 mph - N/A   Mostly Cloudy
12:53 AM 73.9 °F - 71.1 °F 91% 30.19 in 10.0 mi West 8.1 mph - N/A   Overcast
1:12 AM 73.4 °F - 69.8 °F 88% 30.21 in 10.0 mi West 8.1 mph - N/A   Mostly Cloudy
1:53 AM 72.0 °F - 69.1 °F 91% 30.17 in 10.0 mi Calm Calm - N/A   Mostly Cloudy
2:53 AM 71.1 °F - 68.0 °F 90% 30.17 in 10.0 mi WSW 4.6 mph - N/A   Clear
3:50 AM 71.6 °F - 69.8 °F 94% 30.19 in 10.0 mi SW 5.8 mph - N/A   Mostly Cloudy
3:53 AM 72.0 °F - 69.1 °F 91% 30.16 in 10.0 mi SSW 5.8 mph - N/A   Mostly Cloudy
4:05 AM 71.6 °F - 69.8 °F 94% 30.18 in 10.0 mi West 4.6 mph - N/A   Overcast
4:51 AM 71.6 °F - 69.8 °F 94% 30.17 in 10.0 mi Calm Calm - N/A   Mostly Cloudy
4:53 AM 71.1 °F - 69.1 °F 93% 30.14 in 10.0 mi Calm Calm - N/A   Mostly Cloudy
5:53 AM 72.0 °F - 69.1 °F 91% 30.13 in 10.0 mi Calm Calm - N/A   Mostly Cloudy
6:10 AM 71.6 °F - 68.0 °F 88% 30.17 in 10.0 mi Calm Calm - N/A   Scattered Clouds
6:38 AM 71.6 °F - 69.8 °F 94% 30.18 in 10.0 mi South 8.1 mph - N/A   Mostly Cloudy
6:53 AM 71.1 °F - 69.1 °F 93% 30.16 in 10.0 mi South 9.2 mph - N/A   Overcast
7:12 AM 71.6 °F - 69.8 °F 94% 30.18 in 10.0 mi SW 5.8 mph - N/A   Scattered Clouds
7:53 AM 73.9 °F - 69.1 °F 85% 30.17 in 10.0 mi West 6.9 mph - N/A   Partly Cloudy
8:53 AM 77.0 °F - 70.0 °F 79% 30.17 in 10.0 mi West 6.9 mph - N/A   Mostly Cloudy
9:53 AM 80.1 °F 83.6 °F 71.1 °F 74% 30.17 in 10.0 mi WNW 6.9 mph - N/A   Partly Cloudy
10:10 AM 80.6 °F 84.6 °F 71.6 °F 74% 30.20 in 10.0 mi NW 4.6 mph - N/A   Mostly Cloudy
10:53 AM 81.0 °F 84.9 °F 71.1 °F 72% 30.17 in 10.0 mi WSW 5.8 mph - N/A   Mostly Cloudy
11:53 AM 82.0 °F 86.7 °F 72.0 °F 71% 30.17 in 10.0 mi WSW 4.6 mph - N/A   Scattered Clouds
12:18 PM 82.4 °F 87.2 °F 71.6 °F 70% 30.20 in 10.0 mi SW 3.5 mph - N/A   Mostly Cloudy
12:53 PM 82.9 °F 88.0 °F 72.0 °F 69% 30.17 in 10.0 mi SSE 8.1 mph - N/A   Scattered Clouds
1:53 PM 84.9 °F 90.1 °F 71.1 °F 63% 30.15 in 10.0 mi Variable 4.6 mph - N/A   Partly Cloudy
2:53 PM 84.9 °F 90.7 °F 72.0 °F 65% 30.13 in 10.0 mi SW 4.6 mph - N/A   Partly Cloudy
3:53 PM 87.1 °F 92.8 °F 71.1 °F 59% 30.10 in 10.0 mi SW 8.1 mph - N/A   Scattered Clouds
4:53 PM 88.0 °F 92.9 °F 70.0 °F 55% 30.08 in 10.0 mi SSW 9.2 mph - N/A   Partly Cloudy
5:53 PM 87.1 °F 92.0 °F 70.0 °F 57% 30.07 in 10.0 mi SW 5.8 mph - N/A   Clear
6:53 PM 87.1 °F 92.8 °F 71.1 °F 59% 30.07 in 10.0 mi South 8.1 mph - N/A   Mostly Cloudy
7:53 PM 84.0 °F 89.0 °F 71.1 °F 65% 30.08 in 10.0 mi SSW 6.9 mph - N/A   Clear
8:53 PM 79.0 °F - 68.0 °F 69% 30.10 in 10.0 mi West 10.4 mph - N/A   Mostly Cloudy
8:58 PM 78.8 °F - 68.0 °F 69% 30.13 in 10.0 mi West 8.1 mph - N/A Thunderstorm Mostly Cloudy
9:05 PM 78.8 °F - 66.2 °F 65% 30.14 in 10.0 mi WSW 4.6 mph - N/A Thunderstorm Overcast
9:53 PM 75.9 °F - 71.1 °F 85% 30.14 in 10.0 mi SE 5.8 mph - 0.03 in Rain , Thunderstorm Light Rain
10:21 PM 75.2 °F - 71.6 °F 89% 30.17 in 10.0 mi SE 8.1 mph - 0.00 in   Mostly Cloudy
10:25 PM 75.2 °F - 71.6 °F 89% 30.17 in 10.0 mi SSE 11.5 mph - 0.00 in Thunderstorm Mostly Cloudy
10:46 PM 73.4 °F - 71.6 °F 94% 30.17 in 10.0 mi South 6.9 mph - 0.00 in   Partly Cloudy
10:53 PM 73.9 °F - 71.1 °F 91% 30.14 in 10.0 mi South 6.9 mph - 0.00 in   Partly Cloudy
11:53 PM 73.9 °F - 70.0 °F 87% 30.14 in 10.0 mi Calm Calm - N/A   Scattered Clouds